OpenBCM V1.13 (Linux)

Packet Radio Mailbox

DB0FHN

[JN59NK Nuernberg]

 Login: GUEST





  
LU9DCE > KEP      16.05.19 19:34l 244 Lines 12034 Bytes #999 (0) @ WW
BID : 24645_LU9DCE
Read: DF7EAV DK3UZ GUEST
Subj: TLE 16 05
Path: DB0FHN<DB0BLO<DB0ERF<OK0NAG<IK6ZDE<VE2PKT<N3HYM<LU9DCE
Sent: 190516/1800Z 24645@LU9DCE.TOR.BA.ARG.SOAM LinBPQ6.0.18

            __    _  _  ___  ____   ___  ____    ____  ____  ____
           (  )  / )( \/ _ \(    \ / __)(  __)  (  _ \(  _ \/ ___)
           / (_/\) \/ (\__  )) D (( (__  ) _)    ) _ ( ) _ (\___ \
           \____/\____/(___/(____/ \___)(____)  (____/(____/(____/
               ESTACION DE PACKET RADIO - BUENOS AIRES (GF05OM)
                   BOLETINES INFORMATIVOS PROGRAMADOS (BIP)
              28.125 USB @ 300 BAUD --- HELLOCODELINUX@GMAIL.COM

+----------------------------------------------------------------------------+
OSCAR 7
1  7530U 74089B   19135.48232763 -.00000040  00000-0  28546-4 0  9991
2  7530 101.7411 103.4981 0012564  54.0989  60.7663 12.53638059 36235
OSCAR 11 (UoSAT 2)
1 14781U 84021B   19136.30332521  .00000101  00000-0  18483-4 0  9995
2 14781  97.6135 162.5962 0009998  73.0227 287.2082 14.83083907893812
OSCAR 19 (LUSAT)
1 20442U 90005G   19136.08223527 -.00000003  00000-0  15232-4 0  9996
2 20442  98.6465  78.1428 0010647 246.7153 113.2911 14.32924671531565
EYESAT A
1 22825U 93061C   19135.21624353  .00000010  00000-0  21886-4 0  9993
2 22825  98.9019 123.0698 0009518  98.2889 261.9372 14.30058151337026
ITAMSAT
1 22826U 93061D   19134.52643821 +.00000021 +00000-0 +25804-4 0  9994
2 22826 098.8959 122.3602 0010064 090.3127 269.9208 14.30391567336871
RADIO ROSTO
1 23439U 94085A   19135.45896346 -.00000024  00000-0  51045-3 0  9996
2 23439  64.8137 171.4850 0146680 119.9002 241.6583 11.27567842  4191
JAS 2
1 24278U 96046B   19136.42277719 -.00000002  00000-0  36565-4 0  9999
2 24278  98.5325 294.3532 0349776 326.4496  31.4923 13.53090995123300
TECHSAT 1B
1 25397U 98043D   19136.37661431 -.00000028  00000-0  67488-5 0  9990
2 25397  98.6869  76.9285 0002228 111.9875 248.1540 14.23665175 83136
ISS (ZARYA)
1 25544U 98067A   19136.56906613  .00000265  00000-0  11688-4 0  9997
2 25544  51.6424 158.2936 0001549 359.1041 144.0883 15.52677814170349
PCSAT
1 26931U 01043C   19135.31256487 -.00000014  00000-0  26365-4 0  9996
2 26931  67.0510  92.3936 0006319 280.0776  79.9612 14.30541554920055
SAUDISAT 1C
1 27607U 02058C   19135.38810989  .00000047  00000-0  27378-4 0  9994
2 27607  64.5532 154.4751 0082224 263.0637  96.1107 14.75544805881971
CUTE-1
1 27844U 03031E   19135.46074783  .00000072  00000-0  52041-4 0  9995
2 27844  98.6848 144.1850 0010859 126.2367 233.9816 14.22175785823426
CUBESAT XI 4
1 27848U 03031J   19136.00613611  .00000046  00000-0  40708-4 0  9997
2 27848  98.6926 145.2150 0010599 135.0661 225.1376 14.21771125823353
MOZHAYETS 4
1 27939U 03042A   19136.41693405  .00000169  00000-0  38907-4 0  9998
2 27939  98.0343 272.8907 0013142 167.2345 192.9202 14.66778078835660
CUBESAT XI 5
1 28895U 05043F   19135.39545934  .00000155  00000-0  38528-4 0  9996
2 28895  97.9540 279.3124 0018247  99.7094 260.6170 14.63659066722476
CUTE-1.7+APD II
1 32785U 08021C   19136.20387520  .00000294  00000-0  37409-4 0  9995
2 32785  97.5495 137.4986 0013615  20.9279 339.2493 14.88296111598702
DELFI C3
1 32789U 08021G   19136.15113748  .00001982  00000-0  13676-3 0  9996
2 32789  97.4672 186.8248 0010925 234.9658 125.0545 15.06879493601918
SEEDS
1 32791U 08021J   19135.47316411  .00000337  00000-0  39634-4 0  9991
2 32791  97.5286 142.7392 0013241 359.4861   0.6342 14.90798983599013
YUBELEINY
1 32953U 08025A   19136.24370858  .00000020  00000-0  75656-4 0  9999
2 32953  82.5016 165.5641 0018735 198.4851 161.5538 12.43089438498152
PRISM (HITOMI)
1 33493U 09002B   19136.36726241  .00000521  00000-0  51302-4 0  9997
2 33493  98.1221  56.0578 0014087 296.3925  63.5849 14.96617709560167
KKS-1 (KISEKI)
1 33499U 09002H   19136.17308962  .00000134  00000-0  27844-4 0  9992
2 33499  98.3525 333.8082 0008315 319.9342  40.1252 14.75432995554284
SWISSCUBE
1 35932U 09051B   19136.34207436  .00000168  00000-0  48905-4 0  9991
2 35932  98.5847 301.3452 0006376 266.9009  93.1459 14.56274724511928
BEESAT
1 35933U 09051C   19135.45395021  .00000156  00000-0  46249-4 0  9997
2 35933  98.5875 302.1732 0004603 286.9347  73.1345 14.56364867511906
ITUPSAT 1
1 35935U 09051E   19136.04184816  .00000115  00000-0  37574-4 0  9999
2 35935  98.5986 303.0187 0006903 280.2209  79.8209 14.55526382511749
XIWANG-1 (HOPE-1)
1 36122U 09072B   19136.14168725 -.00000053  00000-0 -27617-4 0  9993
2 36122 100.0728 140.0993 0008184  66.1952 294.0019 13.16349176452467
TISAT 1
1 36799U 10035E   19135.45823384  .00000366  00000-0  43079-4 0  9991
2 36799  98.1512 286.4850 0012029 191.8630 168.2305 14.91079464479669
JUGNU
1 37839U 11058B   19136.22135575  .00000325  00000-0  31530-4 0  9991
2 37839  19.9597 177.7446 0018831 318.7513 298.1085 14.12650212392514
SRMSAT
1 37841U 11058D   19135.29630198  .00000307  00000-0  23634-4 0  9997
2 37841  19.9714 239.4202 0011721 178.2754  45.2773 14.10631485391839
M-CUBED/EXP-1 PRIME
1 37855U 11061F   19136.23419345  .00001069  00000-0  61387-4 0  9993
2 37855 101.7192  14.6558 0173757 175.9448 184.3220 15.05339191411742
HORYU 2
1 38340U 12025D   19136.35129941  .00000208  00000-0  38506-4 0  9998
2 38340  98.3321 173.9360 0010561 225.2676 134.7673 14.75706204376247
STRAND 1
1 39090U 13009E   19135.48273598  .00000042  00000-0  30091-4 0  9992
2 39090  98.4919 342.0099 0009906  36.9127 323.2739 14.35082843325481
SOMP
1 39134U 13015E   19136.33386900  .00001612  00000-0  83073-4 0  9997
2 39134  64.8627 128.5039 0028026 309.2515  50.6125 15.20076697335526
BEESAT 3
1 39135U 13015F   19136.32875427  .00001337  00000-0  76266-4 0  9994
2 39135  64.8653 146.3540 0016150 324.2680  35.7364 15.17392410335187
BEESAT 2
1 39136U 13015G   19136.35329350  .00001076  00000-0  64273-4 0  9992
2 39136  64.8678 149.9952 0016956 309.3990  50.5633 15.16833739335113
CUBEBUG 1
1 39153U 13018D   19136.24194871  .00000197  00000-0  32693-4 0  9994
2 39153  97.9759 234.5594 0015747 310.0032  49.9797 14.80554230326866
ZACUBE
1 39417U 13066B   19136.19600146  .00000272  00000-0  40378-4 0  9994
2 39417  97.5641 151.5780 0059970 142.6141 217.9269 14.81099600296083
TRITON 1
1 39427U 13066M   19136.18869305  .00000199  00000-0  40112-4 0  9992
2 39427  97.6738 115.6417 0112276 272.8497  85.9863 14.67825730293422
GOMX 1
1 39430U 13066Q   19136.29787449  .00000479  00000-0  95739-4 0  9992
2 39430  97.7430  95.0550 0151446   0.1845 359.9389 14.59239506291736
HUMSAT D
1 39433U 13066T   19136.08493673  .00000690  00000-0  72524-4 0  9997
2 39433  97.5567 184.9579 0032057  54.9239 305.4980 14.92163375298060
CUBEBUG 2
1 39440U 13066AA  19135.03778657  .00000236  00000-0  39797-4 0  9998
2 39440  97.6019 135.5226 0079809 196.4878 163.3735 14.75837973294865
FUNCUBE 1
1 39444U 13066AE  19136.28255562  .00000345  00000-0  48583-4 0  9999
2 39444  97.5624 153.5721 0059251 136.4469 224.1446 14.81915004294986
UWE-3
1 39446U 13066AG  19135.23671987  .00000288  00000-0  44740-4 0  9995
2 39446  97.5819 142.6901 0070293 171.2161 189.0299 14.78372382294176
SPROUT
1 39770U 14029E   19136.26244599  .00000949  00000-0  11121-3 0  9994
2 39770  97.8812 239.7810 0008409 186.8943 173.2107 14.87302278269867
UNISAT 6
1 40012U 14033C   19136.20818980  .00000204  00000-0  37774-4 0  9992
2 40012  97.7623   4.2541 0057627 204.6280 155.2175 14.73963788263753
DUCHIFAT 1
1 40021U 14033M   19136.38298297  .00000414  00000-0  48102-4 0  9994
2 40021  97.9240  60.8676 0013387 153.6436 206.5466 14.90602412266588
QB50P1
1 40025U 14033R   19136.23289609  .00000297  00000-0  37604-4 0  9993
2 40025  97.9067  55.9701 0012707 162.9177 197.2470 14.88923547266340
CHUBUSAT 1
1 40300U 14070C   19136.25358959  .00000590  00000-0  28706-4 0  9996
2 40300  97.3281 211.2807 0019502 169.0790 228.4145 15.22040356250932
NUDT-PHONESAT
1 40900U 15049B   19136.26727527  .00003590  00000-0  15703-3 0  9996
2 40900  97.4378 145.9335 0011631 308.0391 181.0150 15.22662431202573
ZDPS 2A
1 40901U 15049C   19136.31619047  .00001448  00000-0  75143-4 0  9995
2 40901  97.4593 142.6246 0012532 325.9129 129.4769 15.17670751202172
ZDPS 2B
1 40902U 15049D   19136.27648196  .00002047  00000-0  10544-3 0  9997
2 40902  97.4541 140.1369 0012282 323.2347 160.7130 15.17469341202148
XW-2A
1 40903U 15049E   19136.21492731  .00003568  00000-0  86355-4 0  9997
2 40903  97.3412 178.7845 0011933 266.6791 133.5837 15.41729414205092
KAITUO 1A
1 40904U 15049F   19136.39461884  .00000421  00000-0  25841-4 0  9990
2 40904  97.4658 138.9765 0013463 329.8175 167.7661 15.15333526201954
OBJECT G
1 40905U 15049G   19136.37951185  .00000453  00000-0  28326-4 0  9993
2 40905  97.4701 136.5567 0014523 323.2266 142.5268 15.14263631201834
XW-2C
1 40906U 15049H   19136.39684596  .00000924  00000-0  52045-4 0  9993
2 40906  97.4672 139.0311 0013736 320.8354 146.9332 15.15634081201958
XW-2D
1 40907U 15049J   19136.37861543  .00000743  00000-0  42302-4 0  9995
2 40907  97.4656 138.6891 0012898 317.9887 150.1678 15.15815878201961
LILACSAT 2
1 40908U 15049K   19136.42077947  .00001187  00000-0  69267-4 0  9991
2 40908  97.4776 137.6390 0014752 323.1052 182.1985 15.13779938201771
XW-2F
1 40910U 15049M   19136.24357744  .00002425  00000-0  12511-3 0  9995
2 40910  97.4618 140.4720 0013582 310.5358 178.0423 15.17230022201947
XW-2B
1 40911U 15049N   19136.28009148  .00001362  00000-0  74790-4 0  9999
2 40911  97.4671 139.2321 0012703 319.7177 161.3415 15.15750799201845
KAITUO 1B
1 40912U 15049P   19136.38730690  .00002092  00000-0  10153-3 0  9997
2 40912  97.4501 144.1752 0013376 291.5206 176.0993 15.19531680202258
TIANWANG 1C (TW-1C)
1 40926U 15051B   19136.25661833  .00019669  00000-0  29307-3 0  9992
2 40926  97.1391 182.4821 0009780 128.3773 298.2034 15.55083319204963
